This is the latest recevied weather packets stored in our database for station/object EB2EMZ-15. If no packets are shown the sender has not sent any weather packets the latest 10 day(s).
| Time | Temp. | Humidity | Pressure | Rain* | Wind** | Luminosity | Snow |
|---|---|---|---|---|---|---|---|
| 1778163916 | 21.11° C | 54% | 988 hPa | 0 mm | - | - | - |
| 1778163618 | 21.11° C | 55% | 988 hPa | 0 mm | - | - | - |
| 1778163315 | 21.11° C | 56% | 988 hPa | 0 mm | - | - | - |
| 1778163018 | 20.56° C | 55% | 988 hPa | 0 mm | - | - | - |
| 1778162716 | 20.56° C | 56% | 988.1 hPa | 0 mm | - | - | - |
| 1778162416 | 21.11° C | 56% | 988.1 hPa | 0 mm | - | - | - |
| 1778162115 | 21.11° C | 56% | 988.2 hPa | 0 mm | - | - | - |
| 1778161818 | 21.11° C | 55% | 988.3 hPa | 0 mm | - | - | - |
| 1778161515 | 21.11° C | 55% | 988.5 hPa | 0 mm | - | - | - |
| 1778161218 | 21.11° C | 54% | 988.5 hPa | 0 mm | - | - | - |
| 1778160915 | 21.67° C | 53% | 988.5 hPa | 0 mm | - | - | - |
| 1778160617 | 21.67° C | 53% | 988.7 hPa | 0 mm | - | - | - |
| 1778160315 | 22.22° C | 53% | 988.6 hPa | 0 mm | - | - | - |
| 1778160018 | 22.22° C | 53% | 988.7 hPa | 0 mm | - | - | - |
| 1778159715 | 21.67° C | 54% | 988.7 hPa | 0 mm | - | - | - |
| 1778159418 | 21.67° C | 54% | 988.8 hPa | 0 mm | - | - | - |
| 1778159116 | 21.67° C | 54% | 989 hPa | 0 mm | - | - | - |
| 1778158815 | 21.67° C | 53% | 989.1 hPa | 0 mm | - | - | - |
| 1778158516 | 21.67° C | 54% | 988.9 hPa | 0 mm | - | - | - |
| 1778158217 | 21.67° C | 54% | 989 hPa | 0 mm | - | - | - |
| 1778157916 | 21.67° C | 54% | 989.2 hPa | 0 mm | - | - | - |
| 1778157618 | 21.11° C | 55% | 989.1 hPa | 0 mm | - | - | - |
| 1778157315 | 21.11° C | 55% | 989.3 hPa | 0 mm | - | - | - |
| 1778157018 | 21.11° C | 56% | 989.4 hPa | 0 mm | - | - | - |
| 1778156715 | 20.56° C | 55% | 989.5 hPa | 0 mm | - | - | - |
* Rain latest hour (hover to see other rain measurements)
** Current wind speed in m/s (hover to see current wind gust speed)